TimeEST,TemperatureF,Dew PointF,Humidity,Sea Level PressureIn,VisibilityMPH,Wind Direction,Wind SpeedMPH,Gust SpeedMPH,PrecipitationIn,Events,Conditions,WindDirDegrees,DateUTC
12:53 AM,28.9,10.0,45,29.77,10.0,Variable,5.8,17.3,N/A,,Overcast,0,2013-02-17 05:53:00
1:53 AM,28.0,9.0,45,29.76,10.0,Variable,5.8,-,N/A,,Overcast,0,2013-02-17 06:53:00
2:53 AM,28.0,9.0,45,29.73,10.0,Variable,6.9,-,N/A,,Overcast,0,2013-02-17 07:53:00
3:53 AM,27.0,10.0,49,29.73,10.0,NNW,9.2,-,N/A,,Overcast,340,2013-02-17 08:53:00
4:53 AM,27.0,6.1,41,29.73,10.0,NNW,9.2,17.3,N/A,,Overcast,340,2013-02-17 09:53:00
5:53 AM,27.0,1.9,34,29.72,10.0,NNW,11.5,20.7,N/A,,Partly Cloudy,330,2013-02-17 10:53:00
6:53 AM,26.1,1.0,34,29.71,10.0,NNW,11.5,28.8,N/A,,Partly Cloudy,330,2013-02-17 11:53:00
7:53 AM,26.1,-0.0,32,29.73,10.0,NNW,16.1,23.0,N/A,,Clear,330,2013-02-17 12:53:00
8:53 AM,26.1,-0.0,32,29.73,10.0,NW,16.1,24.2,N/A,,Clear,320,2013-02-17 13:53:00
9:53 AM,27.0,1.0,33,29.74,10.0,NNW,15.0,31.1,N/A,,Clear,330,2013-02-17 14:53:00
10:53 AM,28.9,1.0,30,29.73,10.0,NNW,15.0,28.8,N/A,,Clear,330,2013-02-17 15:53:00
11:53 AM,30.0,1.9,30,29.74,10.0,NW,18.4,34.5,N/A,,Clear,320,2013-02-17 16:53:00
12:53 PM,30.0,1.9,30,29.74,10.0,NNW,18.4,28.8,N/A,,Clear,330,2013-02-17 17:53:00
1:53 PM,30.0,1.0,29,29.76,10.0,NW,21.9,39.1,N/A,,Scattered Clouds,320,2013-02-17 18:53:00
2:53 PM,27.0,1.0,33,29.78,10.0,WNW,23.0,32.2,N/A,,Partly Cloudy,300,2013-02-17 19:53:00
3:53 PM,28.0,3.0,34,29.80,10.0,NNW,19.6,34.5,N/A,,Scattered Clouds,330,2013-02-17 20:53:00
4:53 PM,26.1,5.0,41,29.83,10.0,NW,19.6,31.1,N/A,,Overcast,320,2013-02-17 21:53:00
5:53 PM,24.1,3.0,40,29.86,10.0,WNW,20.7,29.9,N/A,,Clear,300,2013-02-17 22:53:00
6:53 PM,21.9,1.0,40,29.92,10.0,NW,13.8,32.2,N/A,,Clear,310,2013-02-17 23:53:00
7:53 PM,21.0,-0.0,40,29.95,10.0,NW,18.4,34.5,N/A,,Clear,310,2013-02-18 00:53:00
8:53 PM,19.0,-0.0,43,29.99,10.0,NW,18.4,27.6,N/A,,Scattered Clouds,320,2013-02-18 01:53:00
9:53 PM,17.1,-2.0,43,30.01,10.0,NW,18.4,29.9,N/A,,Clear,310,2013-02-18 02:53:00
10:53 PM,17.1,-0.9,45,30.02,10.0,WNW,18.4,32.2,N/A,,Partly Cloudy,300,2013-02-18 03:53:00